Time,TemperatureF,DewpointF,PressureIn,WindDirection,WindDirectionDegrees,WindSpeedMPH,WindSpeedGustMPH,Humidity,HourlyPrecipIn,Conditions,Clouds,dailyrainin,SoftwareType,DateUTC
2013-03-01 00:00:00,37.6,27.3,30.19,NNW,340,0.0,1.0,66,0.00,,SKC,0.00,VWS V14.01,2013-03-01 06:00:00,
2013-03-01 00:01:00,39.3,28.2,30.19,NNW,340,0.0,3.0,64,0.00,,SKC,0.00,VWS V14.01,2013-03-01 06:01:00,
2013-03-01 00:06:00,39.2,28.4,30.19,NNW,340,1.0,2.0,65,0.00,,SKC,0.00,VWS V14.01,2013-03-01 06:06:00,
2013-03-01 00:11:00,39.1,28.3,30.19,NNW,340,0.0,2.0,65,0.00,,SKC,0.00,VWS V14.01,2013-03-01 06:11:00,
2013-03-01 00:16:00,39.1,28.3,30.19,NNW,340,0.0,2.0,65,0.00,,SKC,0.00,VWS V14.01,2013-03-01 06:16:00,
2013-03-01 00:21:00,39.0,28.2,30.19,NNW,340,0.0,2.0,65,0.00,,SKC,0.00,VWS V14.01,2013-03-01 06:21:00,
2013-03-01 00:26:00,38.9,28.5,30.19,NNW,340,0.0,2.0,66,0.00,,SKC,0.00,VWS V14.01,2013-03-01 06:26:00,
2013-03-01 00:30:00,35.9,27.1,30.19,NNW,340,0.0,0.0,70,0.00,,SKC,0.00,VWS V14.01,2013-03-01 06:30:00,
2013-03-01 00:31:00,38.8,28.4,30.19,NNW,340,0.0,2.0,66,0.00,,SKC,0.00,VWS V14.01,2013-03-01 06:31:00,
2013-03-01 00:36:00,38.6,28.6,30.19,NNW,340,0.0,1.0,67,0.00,,SKC,0.00,VWS V14.01,2013-03-01 06:36:00,
2013-03-01 00:41:00,38.5,28.5,30.19,NNW,340,0.0,1.0,67,0.00,,SKC,0.00,VWS V14.01,2013-03-01 06:41:00,
2013-03-01 00:46:00,38.3,28.3,30.19,NNW,340,0.0,1.0,67,0.00,,SKC,0.00,VWS V14.01,2013-03-01 06:46:00,
2013-03-01 00:51:00,38.1,27.8,30.19,NNW,340,0.0,1.0,66,0.00,,SKC,0.00,VWS V14.01,2013-03-01 06:51:00,
2013-03-01 00:56:00,37.9,27.6,30.19,NNW,340,0.0,1.0,66,0.00,,SKC,0.00,VWS V14.01,2013-03-01 06:56:00,
2013-03-01 01:00:00,34.6,26.5,30.19,NNW,340,0.0,0.0,72,0.00,,SKC,0.00,VWS V14.01,2013-03-01 07:00:00,
2013-03-01 01:01:00,37.7,27.4,30.19,NNW,340,0.0,1.0,66,0.00,,SKC,0.00,VWS V14.01,2013-03-01 07:01:00,
2013-03-01 01:06:00,37.4,27.1,30.19,NNW,340,0.0,0.0,66,0.00,,SKC,0.00,VWS V14.01,2013-03-01 07:06:00,
2013-03-01 01:11:00,37.1,27.2,30.19,NNW,340,0.0,0.0,67,0.00,,SKC,0.00,VWS V14.01,2013-03-01 07:11:00,
2013-03-01 01:16:00,36.8,26.9,30.19,NNW,340,0.0,0.0,67,0.00,,SKC,0.00,VWS V14.01,2013-03-01 07:16:00,
2013-03-01 01:21:00,36.5,26.6,30.19,NNW,340,0.0,0.0,67,0.00,,SKC,0.00,VWS V14.01,2013-03-01 07:21:00,
2013-03-01 01:26:00,36.2,26.7,30.19,NNW,340,0.0,0.0,68,0.00,,SKC,0.00,VWS V14.01,2013-03-01 07:26:00,
2013-03-01 01:30:00,33.6,26.5,30.19,NNW,340,0.0,0.0,75,0.00,,SKC,0.00,VWS V14.01,2013-03-01 07:30:00,
2013-03-01 01:31:00,35.9,27.1,30.19,NNW,340,0.0,0.0,70,0.00,,SKC,0.00,VWS V14.01,2013-03-01 07:31:00,
2013-03-01 01:36:00,35.6,26.8,30.19,NNW,340,0.0,0.0,70,0.00,,SKC,0.00,VWS V14.01,2013-03-01 07:36:00,
2013-03-01 01:41:00,35.4,26.6,30.19,NNW,340,0.0,0.0,70,0.00,,SKC,0.00,VWS V14.01,2013-03-01 07:41:00,
2013-03-01 01:46:00,35.2,26.8,30.19,NNW,340,0.0,0.0,71,0.00,,SKC,0.00,VWS V14.01,2013-03-01 07:46:00,
2013-03-01 01:51:00,35.0,26.9,30.19,NNW,340,0.0,0.0,72,0.00,,SKC,0.00,VWS V14.01,2013-03-01 07:51:00,
2013-03-01 01:56:00,34.8,26.7,30.19,NNW,340,0.0,0.0,72,0.00,,SKC,0.00,VWS V14.01,2013-03-01 07:56:00,
2013-03-01 02:00:00,32.9,27.1,30.18,NNW,340,0.0,2.0,79,0.00,,SKC,0.00,VWS V14.01,2013-03-01 08:00:00,
2013-03-01 02:01:00,34.6,26.5,30.19,NNW,340,0.0,0.0,72,0.00,,SKC,0.00,VWS V14.01,2013-03-01 08:01:00,
2013-03-01 02:06:00,34.4,26.7,30.18,NNW,340,0.0,0.0,73,0.00,,SKC,0.00,VWS V14.01,2013-03-01 08:06:00,
2013-03-01 02:11:00,34.2,26.5,30.19,NNW,340,0.0,0.0,73,0.00,,SKC,0.00,VWS V14.01,2013-03-01 08:11:00,
2013-03-01 02:16:00,34.0,26.6,30.19,NNW,340,0.0,0.0,74,0.00,,SKC,0.00,VWS V14.01,2013-03-01 08:16:00,
2013-03-01 02:21:00,33.9,26.8,30.19,NNW,340,0.0,0.0,75,0.00,,SKC,0.00,VWS V14.01,2013-03-01 08:21:00,
2013-03-01 02:26:00,33.8,26.7,30.19,NNW,340,0.0,0.0,75,0.00,,SKC,0.00,VWS V14.01,2013-03-01 08:26:00,
2013-03-01 02:30:00,32.6,27.1,30.18,NNW,340,0.0,1.0,80,0.00,,SKC,0.00,VWS V14.01,2013-03-01 08:30:00,
2013-03-01 02:31:00,33.6,26.5,30.19,NNW,340,0.0,0.0,75,0.00,,SKC,0.00,VWS V14.01,2013-03-01 08:31:00,
2013-03-01 02:36:00,33.5,26.8,30.19,NNW,340,0.0,0.0,76,0.00,,SKC,0.00,VWS V14.01,2013-03-01 08:36:00,
2013-03-01 02:41:00,33.4,26.7,30.19,NNW,340,0.0,1.0,76,0.00,,SKC,0.00,VWS V14.01,2013-03-01 08:41:00,
2013-03-01 02:46:00,33.2,26.8,30.19,NNW,340,0.0,1.0,77,0.00,,SKC,0.00,VWS V14.01,2013-03-01 08:46:00,
2013-03-01 02:51:00,33.1,27.0,30.18,NNW,340,0.0,1.0,78,0.00,,SKC,0.00,VWS V14.01,2013-03-01 08:51:00,
2013-03-01 02:56:00,32.9,26.8,30.18,NNW,340,1.0,2.0,78,0.00,,SKC,0.00,VWS V14.01,2013-03-01 08:56:00,
2013-03-01 03:00:00,32.7,27.8,30.18,NNW,340,0.0,2.0,82,0.00,,SKC,0.00,VWS V14.01,2013-03-01 09:00:00,
2013-03-01 03:01:00,32.9,27.1,30.18,NNW,340,0.0,2.0,79,0.00,,SKC,0.00,VWS V14.01,2013-03-01 09:01:00,
2013-03-01 03:06:00,32.8,27.0,30.18,NNW,340,0.0,1.0,79,0.00,,SKC,0.00,VWS V14.01,2013-03-01 09:06:00,
2013-03-01 03:11:00,32.8,27.3,30.18,NNW,340,0.0,1.0,80,0.00,,SKC,0.00,VWS V14.01,2013-03-01 09:11:00,
2013-03-01 03:16:00,32.8,27.3,30.18,NNW,340,0.0,1.0,80,0.00,,SKC,0.00,VWS V14.01,2013-03-01 09:16:00,
2013-03-01 03:21:00,32.7,27.2,30.18,NNW,340,0.0,1.0,80,0.00,,SKC,0.00,VWS V14.01,2013-03-01 09:21:00,
2013-03-01 03:26:00,32.7,27.2,30.18,NNW,340,0.0,1.0,80,0.00,,SKC,0.00,VWS V14.01,2013-03-01 09:26:00,
2013-03-01 03:30:00,32.6,27.7,30.18,NNW,340,0.0,1.0,82,0.00,,SKC,0.00,VWS V14.01,2013-03-01 09:30:00,
2013-03-01 03:31:00,32.6,27.1,30.18,NNW,340,0.0,1.0,80,0.00,,SKC,0.00,VWS V14.01,2013-03-01 09:31:00,
2013-03-01 03:36:00,32.6,26.8,30.18,NNW,340,0.0,0.0,79,0.00,,SKC,0.00,VWS V14.01,2013-03-01 09:36:00,
2013-03-01 03:41:00,32.5,27.0,30.18,NNW,340,0.0,0.0,80,0.00,,SKC,0.00,VWS V14.01,2013-03-01 09:41:00,
2013-03-01 03:46:00,32.5,27.0,30.18,NNW,340,0.0,2.0,80,0.00,,SKC,0.00,VWS V14.01,2013-03-01 09:46:00,
2013-03-01 03:51:00,32.5,27.3,30.18,NNW,340,0.0,2.0,81,0.00,,SKC,0.00,VWS V14.01,2013-03-01 09:51:00,
2013-03-01 03:56:00,32.6,27.4,30.18,NNW,340,1.0,2.0,81,0.00,,SKC,0.00,VWS V14.01,2013-03-01 09:56:00,
2013-03-01 04:00:00,32.7,27.8,30.18,NNW,340,0.0,2.0,82,0.00,,SKC,0.00,VWS V14.01,2013-03-01 10:00:00,
2013-03-01 04:01:00,32.7,27.8,30.18,NNW,340,1.0,2.0,82,0.00,,SKC,0.00,VWS V14.01,2013-03-01 10:01:00,
2013-03-01 04:06:00,32.8,27.9,30.18,NNW,340,0.0,1.0,82,0.00,,SKC,0.00,VWS V14.01,2013-03-01 10:06:00,
2013-03-01 04:11:00,32.8,27.9,30.18,NNW,340,0.0,1.0,82,0.00,,SKC,0.00,VWS V14.01,2013-03-01 10:11:00,
2013-03-01 04:16:00,32.8,27.9,30.18,NNW,340,0.0,1.0,82,0.00,,SKC,0.00,VWS V14.01,2013-03-01 10:16:00,
2013-03-01 04:21:00,32.8,27.9,30.18,NNW,340,0.0,1.0,82,0.00,,SKC,0.00,VWS V14.01,2013-03-01 10:21:00,
2013-03-01 04:26:00,32.7,27.8,30.18,NNW,340,0.0,1.0,82,0.00,,SKC,0.00,VWS V14.01,2013-03-01 10:26:00,
2013-03-01 04:30:00,31.7,27.4,30.19,NNW,340,0.0,2.0,84,0.00,,SKC,0.00,VWS V14.01,2013-03-01 10:30:00,
2013-03-01 04:31:00,32.6,27.7,30.18,NNW,340,0.0,1.0,82,0.00,,SKC,0.00,VWS V14.01,2013-03-01 10:31:00,
2013-03-01 04:36:00,32.5,27.6,30.18,NNW,340,0.0,1.0,82,0.00,,SKC,0.00,VWS V14.01,2013-03-01 10:36:00,
2013-03-01 04:41:00,32.4,27.5,30.18,NNW,340,0.0,1.0,82,0.00,,SKC,0.00,VWS V14.01,2013-03-01 10:41:00,
2013-03-01 04:46:00,32.2,27.3,30.18,NNW,340,0.0,2.0,82,0.00,,SKC,0.00,VWS V14.01,2013-03-01 10:46:00,
2013-03-01 04:51:00,32.1,27.2,30.18,NNW,340,1.0,2.0,82,0.00,,SKC,0.00,VWS V14.01,2013-03-01 10:51:00,
2013-03-01 04:56:00,32.0,27.4,30.18,NNW,340,1.0,2.0,83,0.00,,SKC,0.00,VWS V14.01,2013-03-01 10:56:00,
2013-03-01 05:00:00,31.1,27.1,30.20,NNW,340,0.0,2.0,85,0.00,,SKC,0.00,VWS V14.01,2013-03-01 11:00:00,
2013-03-01 05:03:00,32.0,27.7,30.18,NNW,340,2.0,2.0,84,0.00,,SKC,0.00,VWS V14.01,2013-03-01 11:03:00,
2013-03-01 05:08:00,32.0,27.7,30.18,NNW,340,1.0,2.0,84,0.00,,SKC,0.00,VWS V14.01,2013-03-01 11:08:00,
2013-03-01 05:13:00,32.0,27.7,30.18,NNW,340,0.0,2.0,84,0.00,,SKC,0.00,VWS V14.01,2013-03-01 11:13:00,
2013-03-01 05:18:00,32.0,27.7,30.19,NNW,340,0.0,2.0,84,0.00,,SKC,0.00,VWS V14.01,2013-03-01 11:18:00,
2013-03-01 05:23:00,31.9,27.6,30.19,NNW,340,1.0,2.0,84,0.00,,SKC,0.00,VWS V14.01,2013-03-01 11:23:00,
2013-03-01 05:28:00,31.8,27.5,30.19,NNW,340,0.0,2.0,84,0.00,,SKC,0.00,VWS V14.01,2013-03-01 11:28:00,
2013-03-01 05:30:00,30.4,26.4,30.21,NNW,340,0.0,1.0,85,0.00,,SKC,0.00,VWS V14.01,2013-03-01 11:30:00,
2013-03-01 05:33:00,31.7,27.4,30.19,NNW,340,1.0,2.0,84,0.00,,SKC,0.00,VWS V14.01,2013-03-01 11:33:00,
2013-03-01 05:38:00,31.6,27.3,30.19,NNW,340,0.0,2.0,84,0.00,,SKC,0.00,VWS V14.01,2013-03-01 11:38:00,
2013-03-01 05:43:00,31.4,27.4,30.19,NNW,340,0.0,2.0,85,0.00,,SKC,0.00,VWS V14.01,2013-03-01 11:43:00,
2013-03-01 05:48:00,31.4,27.4,30.19,NNW,340,0.0,2.0,85,0.00,,SKC,0.00,VWS V14.01,2013-03-01 11:48:00,
2013-03-01 05:53:00,31.3,27.3,30.19,NNW,340,1.0,2.0,85,0.00,,SKC,0.00,VWS V14.01,2013-03-01 11:53:00,
2013-03-01 05:58:00,31.2,27.2,30.19,NNW,340,0.0,2.0,85,0.00,,SKC,0.00,VWS V14.01,2013-03-01 11:58:00,
2013-03-01 06:00:00,29.4,25.5,30.21,NNW,340,0.0,0.0,85,0.00,,SKC,0.00,VWS V14.01,2013-03-01 12:00:00,
2013-03-01 06:03:00,31.1,27.1,30.20,NNW,340,0.0,0.0,85,0.00,,SKC,0.00,VWS V14.01,2013-03-01 12:03:00,
2013-03-01 06:08:00,31.0,27.0,30.20,NNW,340,0.0,0.0,85,0.00,,SKC,0.00,VWS V14.01,2013-03-01 12:08:00,
2013-03-01 06:13:00,30.9,26.9,30.20,NNW,340,0.0,0.0,85,0.00,,SKC,0.00,VWS V14.01,2013-03-01 12:13:00,
2013-03-01 06:18:00,30.7,26.7,30.21,NNW,340,0.0,1.0,85,0.00,,SKC,0.00,VWS V14.01,2013-03-01 12:18:00,
2013-03-01 06:23:00,30.6,26.6,30.21,NNW,340,0.0,1.0,85,0.00,,SKC,0.00,VWS V14.01,2013-03-01 12:23:00,
2013-03-01 06:28:00,30.5,26.5,30.21,NNW,340,0.0,1.0,85,0.00,,SKC,0.00,VWS V14.01,2013-03-01 12:28:00,
2013-03-01 06:30:00,29.1,26.0,30.22,NNW,340,0.0,0.0,88,0.00,,SKC,0.00,VWS V14.01,2013-03-01 12:30:00,
2013-03-01 06:33:00,30.3,26.3,30.21,NNW,340,0.0,0.0,85,0.00,,SKC,0.00,VWS V14.01,2013-03-01 12:33:00,
2013-03-01 06:38:00,30.2,26.2,30.21,NNW,340,0.0,0.0,85,0.00,,SKC,0.00,VWS V14.01,2013-03-01 12:38:00,
2013-03-01 06:43:00,30.1,26.1,30.21,NNW,340,0.0,0.0,85,0.00,,SKC,0.00,VWS V14.01,2013-03-01 12:43:00,
2013-03-01 06:48:00,29.9,26.0,30.21,NNW,340,0.0,0.0,85,0.00,,SKC,0.00,VWS V14.01,2013-03-01 12:48:00,
2013-03-01 06:53:00,29.7,25.8,30.21,NNW,340,0.0,0.0,85,0.00,,SKC,0.00,VWS V14.01,2013-03-01 12:53:00,
2013-03-01 06:58:00,29.6,25.6,30.21,NNW,340,0.0,0.0,85,0.00,,SKC,0.00,VWS V14.01,2013-03-01 12:58:00,
2013-03-01 07:00:00,30.7,28.1,30.23,NNW,340,0.0,2.0,90,0.00,,SKC,0.00,VWS V14.01,2013-03-01 13:00:00,
2013-03-01 07:03:00,29.4,25.5,30.21,NNW,340,0.0,0.0,85,0.00,,SKC,0.00,VWS V14.01,2013-03-01 13:03:00,
2013-03-01 07:08:00,29.3,25.6,30.22,NNW,340,0.0,0.0,86,0.00,,SKC,0.00,VWS V14.01,2013-03-01 13:08:00,
2013-03-01 07:13:00,29.2,25.5,30.22,NNW,340,0.0,0.0,86,0.00,,SKC,0.00,VWS V14.01,2013-03-01 13:13:00,
2013-03-01 07:18:00,29.1,25.7,30.22,NNW,340,0.0,0.0,87,0.00,,SKC,0.00,VWS V14.01,2013-03-01 13:18:00,
2013-03-01 07:23:00,29.0,25.6,30.22,NNW,340,0.0,0.0,87,0.00,,SKC,0.00,VWS V14.01,2013-03-01 13:23:00,
2013-03-01 07:28:00,29.0,25.9,30.22,NNW,340,0.0,0.0,88,0.00,,SKC,0.00,VWS V14.01,2013-03-01 13:28:00,
2013-03-01 07:30:00,34.1,31.2,30.25,NNW,340,1.0,3.0,89,0.00,,SKC,0.00,VWS V14.01,2013-03-01 13:30:00,
2013-03-01 07:33:00,29.2,26.1,30.22,NNW,340,0.0,0.0,88,0.00,,SKC,0.00,VWS V14.01,2013-03-01 13:33:00,
2013-03-01 07:38:00,29.2,26.1,30.22,NNW,340,0.0,0.0,88,0.00,,SKC,0.00,VWS V14.01,2013-03-01 13:38:00,
2013-03-01 07:43:00,29.4,26.6,30.23,NNW,340,0.0,1.0,89,0.00,,SKC,0.00,VWS V14.01,2013-03-01 13:43:00,
2013-03-01 07:48:00,29.7,26.9,30.23,NNW,340,0.0,2.0,89,0.00,,SKC,0.00,VWS V14.01,2013-03-01 13:48:00,
2013-03-01 07:53:00,30.1,27.5,30.23,NNW,340,0.0,2.0,90,0.00,,SKC,0.00,VWS V14.01,2013-03-01 13:53:00,
2013-03-01 07:58:00,30.4,27.8,30.23,NNW,340,0.0,2.0,90,0.00,,SKC,0.00,VWS V14.01,2013-03-01 13:58:00,
2013-03-01 08:00:00,37.5,32.5,30.26,NNE,14,2.0,5.0,82,0.00,,SKC,0.00,VWS V14.01,2013-03-01 14:00:00,
2013-03-01 08:03:00,30.9,28.3,30.24,NNW,340,0.0,1.0,90,0.00,,SKC,0.00,VWS V14.01,2013-03-01 14:03:00,
2013-03-01 08:08:00,31.4,29.1,30.24,NNW,340,1.0,2.0,91,0.00,,SKC,0.00,VWS V14.01,2013-03-01 14:08:00,
2013-03-01 08:13:00,31.9,29.6,30.24,NNW,340,1.0,2.0,91,0.00,,SKC,0.00,VWS V14.01,2013-03-01 14:13:00,
2013-03-01 08:18:00,32.5,30.2,30.24,NNW,340,2.0,2.0,91,0.00,,SKC,0.00,VWS V14.01,2013-03-01 14:18:00,
2013-03-01 08:23:00,33.2,30.6,30.25,NNW,340,1.0,3.0,90,0.00,,SKC,0.00,VWS V14.01,2013-03-01 14:23:00,
2013-03-01 08:28:00,33.7,31.1,30.25,NNW,340,2.0,3.0,90,0.00,,SKC,0.00,VWS V14.01,2013-03-01 14:28:00,
2013-03-01 08:30:00,40.9,32.6,30.26,WNW,284,0.0,3.0,72,0.00,,SKC,0.00,VWS V14.01,2013-03-01 14:30:00,
2013-03-01 08:33:00,34.3,31.4,30.25,NNW,340,3.0,4.0,89,0.00,,SKC,0.00,VWS V14.01,2013-03-01 14:33:00,
2013-03-01 08:38:00,35.0,31.5,30.25,North,355,2.0,5.0,87,0.00,,SKC,0.00,VWS V14.01,2013-03-01 14:38:00,
2013-03-01 08:43:00,35.5,31.7,30.25,NNW,341,0.0,5.0,86,0.00,,SKC,0.00,VWS V14.01,2013-03-01 14:43:00,
2013-03-01 08:48:00,36.0,31.9,30.26,NNW,327,2.0,5.0,85,0.00,,SKC,0.00,VWS V14.01,2013-03-01 14:48:00,
2013-03-01 08:53:00,36.5,32.1,30.26,North,355,2.0,5.0,84,0.00,,SKC,0.00,VWS V14.01,2013-03-01 14:53:00,
2013-03-01 08:58:00,37.1,32.1,30.26,NNE,14,1.0,5.0,82,0.00,,SKC,0.00,VWS V14.01,2013-03-01 14:58:00,
2013-03-01 09:00:00,43.4,32.8,30.26,NNW,338,2.0,4.0,66,0.00,,SKC,0.00,VWS V14.01,2013-03-01 15:00:00,
2013-03-01 09:03:00,37.8,32.5,30.26,East,88,0.0,3.0,81,0.00,,SKC,0.00,VWS V14.01,2013-03-01 15:03:00,
2013-03-01 09:08:00,38.8,32.9,30.26,NNW,343,0.0,3.0,79,0.00,,SKC,0.00,VWS V14.01,2013-03-01 15:08:00,
2013-03-01 09:13:00,39.5,32.6,30.26,NNW,340,0.0,3.0,76,0.00,,SKC,0.00,VWS V14.01,2013-03-01 15:13:00,
2013-03-01 09:18:00,40.2,33.2,30.26,North,360,0.0,3.0,76,0.00,,SKC,0.00,VWS V14.01,2013-03-01 15:18:00,
2013-03-01 09:23:00,40.5,32.2,30.26,NNW,342,0.0,3.0,72,0.00,,SKC,0.00,VWS V14.01,2013-03-01 15:23:00,
2013-03-01 09:28:00,41.0,32.7,30.26,WNW,286,0.0,3.0,72,0.00,,SKC,0.00,VWS V14.01,2013-03-01 15:28:00,
2013-03-01 09:30:00,45.1,32.9,30.26,NNE,31,1.0,7.0,62,0.00,,SKC,0.00,VWS V14.01,2013-03-01 15:30:00,
2013-03-01 09:33:00,40.9,32.2,30.26,NW,309,3.0,3.0,71,0.00,,SKC,0.00,VWS V14.01,2013-03-01 15:33:00,
2013-03-01 09:38:00,41.8,33.5,30.26,NNW,329,0.0,3.0,72,0.00,,SKC,0.00,VWS V14.01,2013-03-01 15:38:00,
2013-03-01 09:43:00,42.2,32.4,30.26,West,268,2.0,3.0,68,0.00,,SKC,0.00,VWS V14.01,2013-03-01 15:43:00,
2013-03-01 09:48:00,42.5,32.7,30.26,North,11,1.0,4.0,68,0.00,,SKC,0.00,VWS V14.01,2013-03-01 15:48:00,
2013-03-01 09:53:00,43.0,32.4,30.26,North,9,3.0,4.0,66,0.00,,SKC,0.00,VWS V14.01,2013-03-01 15:53:00,
2013-03-01 09:58:00,43.0,32.1,30.26,NNW,338,0.0,4.0,65,0.00,,SKC,0.00,VWS V14.01,2013-03-01 15:58:00,
2013-03-01 10:00:00,46.3,32.3,30.26,West,281,2.0,7.0,58,0.00,,SKC,0.00,VWS V14.01,2013-03-01 16:00:00,
2013-03-01 10:03:00,43.6,32.2,30.26,NNW,338,1.0,2.0,64,0.00,,SKC,0.00,VWS V14.01,2013-03-01 16:03:00,
2013-03-01 10:08:00,44.3,33.3,30.26,NNW,329,2.0,3.0,65,0.00,,SKC,0.00,VWS V14.01,2013-03-01 16:08:00,
2013-03-01 10:12:00,44.1,33.5,30.26,North,350,3.0,4.0,66,0.00,,SKC,0.00,VWS V14.01,2013-03-01 16:12:00,
2013-03-01 10:18:00,44.0,32.6,30.26,NE,34,2.0,7.0,64,0.00,,SKC,0.00,VWS V14.01,2013-03-01 16:18:00,
2013-03-01 10:22:00,44.3,32.1,30.26,NNW,346,3.0,7.0,62,0.00,,SKC,0.00,VWS V14.01,2013-03-01 16:22:00,
2013-03-01 10:27:00,45.0,32.0,30.26,North,355,1.0,7.0,60,0.00,,SKC,0.00,VWS V14.01,2013-03-01 16:27:00,
2013-03-01 10:30:00,48.1,34.0,30.25,WNW,296,1.0,8.0,58,0.00,,SKC,0.00,VWS V14.01,2013-03-01 16:30:00,
2013-03-01 10:32:00,44.9,31.9,30.26,WNW,294,2.0,3.0,60,0.00,,SKC,0.00,VWS V14.01,2013-03-01 16:32:00,
2013-03-01 10:37:00,44.7,32.5,30.26,NW,313,1.0,3.0,62,0.00,,SKC,0.00,VWS V14.01,2013-03-01 16:37:00,
2013-03-01 10:42:00,45.2,32.6,30.26,NW,312,1.0,3.0,61,0.00,,SKC,0.00,VWS V14.01,2013-03-01 16:42:00,
2013-03-01 10:47:00,46.0,33.7,30.26,WNW,298,4.0,7.0,62,0.00,,SKC,0.00,VWS V14.01,2013-03-01 16:47:00,
2013-03-01 10:52:00,45.9,32.8,30.26,West,273,2.0,7.0,60,0.00,,SKC,0.00,VWS V14.01,2013-03-01 16:52:00,
2013-03-01 10:57:00,46.7,34.0,30.26,West,272,6.0,7.0,61,0.00,,SKC,0.00,VWS V14.01,2013-03-01 16:57:00,
2013-03-01 11:00:00,49.0,32.6,30.24,NW,311,0.0,5.0,53,0.00,,SKC,0.00,VWS V14.01,2013-03-01 17:00:00,
2013-03-01 11:02:00,45.9,31.5,30.26,NW,317,1.0,3.0,57,0.00,,SKC,0.00,VWS V14.01,2013-03-01 17:02:00,
2013-03-01 11:07:00,46.1,33.8,30.25,NW,304,2.0,4.0,62,0.00,,SKC,0.00,VWS V14.01,2013-03-01 17:07:00,
2013-03-01 11:12:00,47.7,33.2,30.26,WNW,289,3.0,4.0,57,0.00,,SKC,0.00,VWS V14.01,2013-03-01 17:12:00,
2013-03-01 11:17:00,47.3,33.7,30.26,West,272,3.0,8.0,59,0.00,,SKC,0.00,VWS V14.01,2013-03-01 17:17:00,
2013-03-01 11:22:00,47.5,34.7,30.25,NW,308,0.0,8.0,61,0.00,,SKC,0.00,VWS V14.01,2013-03-01 17:22:00,
2013-03-01 11:27:00,47.9,34.3,30.26,West,280,0.0,8.0,59,0.00,,SKC,0.00,VWS V14.01,2013-03-01 17:27:00,
2013-03-01 11:30:00,48.5,31.7,30.24,WNW,285,0.0,5.0,52,0.00,,SKC,0.00,VWS V14.01,2013-03-01 17:30:00,
2013-03-01 11:32:00,48.1,34.0,30.25,WNW,298,1.0,3.0,58,0.00,,SKC,0.00,VWS V14.01,2013-03-01 17:32:00,
2013-03-01 11:37:00,48.2,32.8,30.25,NNW,335,2.0,5.0,55,0.00,,SKC,0.00,VWS V14.01,2013-03-01 17:37:00,
2013-03-01 11:42:00,48.2,31.4,30.25,WNW,290,1.0,5.0,52,0.00,,SKC,0.00,VWS V14.01,2013-03-01 17:42:00,
2013-03-01 11:47:00,48.3,32.9,30.25,West,276,1.0,5.0,55,0.00,,SKC,0.00,VWS V14.01,2013-03-01 17:47:00,
2013-03-01 11:52:00,49.0,32.2,30.25,North,355,1.0,5.0,52,0.00,,SKC,0.00,VWS V14.01,2013-03-01 17:52:00,
2013-03-01 11:57:00,49.0,32.6,30.25,West,281,1.0,5.0,53,0.00,,SKC,0.00,VWS V14.01,2013-03-01 17:57:00,
2013-03-01 12:00:00,48.2,31.9,30.23,NW,309,0.0,6.0,53,0.00,,SKC,0.00,VWS V14.01,2013-03-01 18:00:00,
2013-03-01 12:02:00,49.1,33.7,30.24,NNE,20,1.0,3.0,55,0.00,,SKC,0.00,VWS V14.01,2013-03-01 18:02:00,
2013-03-01 12:07:00,49.2,32.8,30.24,NNW,327,1.0,4.0,53,0.00,,SKC,0.00,VWS V14.01,2013-03-01 18:07:00,
2013-03-01 12:12:00,49.2,31.9,30.24,NW,326,0.0,4.0,51,0.00,,SKC,0.00,VWS V14.01,2013-03-01 18:12:00,
2013-03-01 12:17:00,49.1,31.3,30.24,WNW,282,0.0,4.0,50,0.00,,SKC,0.00,VWS V14.01,2013-03-01 18:17:00,
2013-03-01 12:22:00,48.9,31.1,30.24,NNW,335,0.0,5.0,50,0.00,,SKC,0.00,VWS V14.01,2013-03-01 18:22:00,
2013-03-01 12:27:00,48.7,31.4,30.24,NNW,344,0.0,5.0,51,0.00,,SKC,0.00,VWS V14.01,2013-03-01 18:27:00,
2013-03-01 12:30:00,51.0,33.5,30.21,NW,325,1.0,7.0,51,0.00,,SKC,0.00,VWS V14.01,2013-03-01 18:30:00,
2013-03-01 12:32:00,48.4,31.6,30.24,WNW,285,0.0,1.0,52,0.00,,SKC,0.00,VWS V14.01,2013-03-01 18:32:00,
2013-03-01 12:37:00,48.1,30.8,30.24,WNW,286,0.0,4.0,51,0.00,,SKC,0.00,VWS V14.01,2013-03-01 18:37:00,
2013-03-01 12:43:00,47.9,31.6,30.23,WNW,285,0.0,5.0,53,0.00,,SKC,0.00,VWS V14.01,2013-03-01 18:43:00,
2013-03-01 12:48:00,48.1,32.3,30.23,WNW,291,2.0,5.0,54,0.00,,SKC,0.00,VWS V14.01,2013-03-01 18:48:00,
2013-03-01 12:53:00,48.2,32.3,30.23,West,277,0.0,6.0,54,0.00,,SKC,0.00,VWS V14.01,2013-03-01 18:53:00,
2013-03-01 12:58:00,48.3,32.0,30.23,West,275,1.0,6.0,53,0.00,,SKC,0.00,VWS V14.01,2013-03-01 18:58:00,
2013-03-01 13:00:00,51.7,34.7,30.19,West,274,4.0,7.0,52,0.00,,SKC,0.00,VWS V14.01,2013-03-01 19:00:00,
2013-03-01 13:03:00,48.2,32.3,30.23,NW,309,1.0,1.0,54,0.00,,SKC,0.00,VWS V14.01,2013-03-01 19:03:00,
2013-03-01 13:08:00,48.4,33.4,30.22,NNW,328,1.0,3.0,56,0.00,,SKC,0.00,VWS V14.01,2013-03-01 19:08:00,
2013-03-01 13:13:00,48.5,32.6,30.22,North,350,0.0,3.0,54,0.00,,SKC,0.00,VWS V14.01,2013-03-01 19:13:00,
2013-03-01 13:18:00,48.5,33.1,30.22,NNW,333,0.0,3.0,55,0.00,,SKC,0.00,VWS V14.01,2013-03-01 19:18:00,
2013-03-01 13:23:00,50.2,33.7,30.21,North,5,2.0,4.0,53,0.00,,SKC,0.00,VWS V14.01,2013-03-01 19:23:00,
2013-03-01 13:27:00,50.9,33.4,30.21,North,9,3.0,7.0,51,0.00,,SKC,0.00,VWS V14.01,2013-03-01 19:27:00,
2013-03-01 13:30:00,51.7,34.2,30.18,NNW,348,0.0,8.0,51,0.00,,SKC,0.00,VWS V14.01,2013-03-01 19:30:00,
2013-03-01 13:32:00,51.2,34.2,30.21,WNW,283,5.0,7.0,52,0.00,,SKC,0.00,VWS V14.01,2013-03-01 19:32:00,
2013-03-01 13:37:00,52.0,34.5,30.20,North,360,3.0,7.0,51,0.00,,SKC,0.00,VWS V14.01,2013-03-01 19:37:00,
2013-03-01 13:42:00,51.8,35.2,30.20,NNW,339,4.0,7.0,53,0.00,,SKC,0.00,VWS V14.01,2013-03-01 19:42:00,
2013-03-01 13:47:00,52.1,34.5,30.20,North,355,3.0,7.0,51,0.00,,SKC,0.00,VWS V14.01,2013-03-01 19:47:00,
2013-03-01 13:52:00,51.6,33.1,30.19,NNW,346,2.0,7.0,49,0.00,,SKC,0.00,VWS V14.01,2013-03-01 19:52:00,
2013-03-01 13:57:00,51.4,33.4,30.19,NNW,336,4.0,7.0,50,0.00,,SKC,0.00,VWS V14.01,2013-03-01 19:57:00,
2013-03-01 14:00:00,52.9,34.8,30.17,NW,304,3.0,7.0,50,0.00,,SKC,0.00,VWS V14.01,2013-03-01 20:00:00,
2013-03-01 14:02:00,51.7,34.2,30.19,NW,309,1.0,8.0,51,0.00,,SKC,0.00,VWS V14.01,2013-03-01 20:02:00,
2013-03-01 14:07:00,51.7,34.7,30.18,North,355,4.0,8.0,52,0.00,,SKC,0.00,VWS V14.01,2013-03-01 20:07:00,
2013-03-01 14:12:00,52.6,35.0,30.18,North,355,6.0,8.0,51,0.00,,SKC,0.00,VWS V14.01,2013-03-01 20:12:00,
2013-03-01 14:17:00,52.4,34.3,30.18,NW,325,0.0,8.0,50,0.00,,SKC,0.00,VWS V14.01,2013-03-01 20:17:00,
2013-03-01 14:22:00,52.1,33.5,30.18,NNW,327,0.0,8.0,49,0.00,,SKC,0.00,VWS V14.01,2013-03-01 20:22:00,
2013-03-01 14:27:00,51.9,33.9,30.18,NNW,346,4.0,8.0,50,0.00,,SKC,0.00,VWS V14.01,2013-03-01 20:27:00,
2013-03-01 14:30:00,52.3,34.7,30.17,NNW,331,3.0,10.0,51,0.00,,SKC,0.00,VWS V14.01,2013-03-01 20:30:00,
2013-03-01 14:32:00,51.7,34.2,30.18,NNW,342,3.0,5.0,51,0.00,,SKC,0.00,VWS V14.01,2013-03-01 20:32:00,
2013-03-01 14:37:00,52.1,35.0,30.18,WNW,288,4.0,5.0,52,0.00,,SKC,0.00,VWS V14.01,2013-03-01 20:37:00,
2013-03-01 14:42:00,51.9,34.4,30.17,North,360,6.0,6.0,51,0.00,,SKC,0.00,VWS V14.01,2013-03-01 20:42:00,
2013-03-01 14:47:00,51.5,34.0,30.17,NNW,347,5.0,7.0,51,0.00,,SKC,0.00,VWS V14.01,2013-03-01 20:47:00,
2013-03-01 14:52:00,52.3,35.2,30.17,NNW,346,2.0,7.0,52,0.00,,SKC,0.00,VWS V14.01,2013-03-01 20:52:00,
2013-03-01 14:57:00,52.8,35.2,30.17,WNW,294,1.0,7.0,51,0.00,,SKC,0.00,VWS V14.01,2013-03-01 20:57:00,
2013-03-01 15:00:00,52.6,34.0,30.17,North,5,2.0,8.0,49,0.00,,SKC,0.00,VWS V14.01,2013-03-01 21:00:00,
2013-03-01 15:03:00,52.8,34.7,30.17,NNW,334,2.0,5.0,50,0.00,,SKC,0.00,VWS V14.01,2013-03-01 21:03:00,
2013-03-01 15:08:00,52.9,35.3,30.17,North,351,4.0,6.0,51,0.00,,SKC,0.00,VWS V14.01,2013-03-01 21:08:00,
2013-03-01 15:13:00,53.3,34.7,30.17,NNW,344,6.0,9.0,49,0.00,,SKC,0.00,VWS V14.01,2013-03-01 21:13:00,
2013-03-01 15:18:00,53.6,35.4,30.17,NNW,344,4.0,9.0,50,0.00,,SKC,0.00,VWS V14.01,2013-03-01 21:18:00,
2013-03-01 15:23:00,53.2,34.5,30.17,NNE,19,3.0,9.0,49,0.00,,SKC,0.00,VWS V14.01,2013-03-01 21:23:00,
2013-03-01 15:28:00,52.6,35.0,30.17,North,355,6.0,10.0,51,0.00,,SKC,0.00,VWS V14.01,2013-03-01 21:28:00,
2013-03-01 15:30:00,52.0,34.5,30.18,NW,325,1.0,7.0,51,0.00,,SKC,0.00,VWS V14.01,2013-03-01 21:30:00,
2013-03-01 15:33:00,52.2,35.1,30.17,North,5,2.0,5.0,52,0.00,,SKC,0.00,VWS V14.01,2013-03-01 21:33:00,
2013-03-01 15:38:00,52.3,36.2,30.17,NW,323,1.0,8.0,54,0.00,,SKC,0.00,VWS V14.01,2013-03-01 21:38:00,
2013-03-01 15:43:00,52.6,35.0,30.17,North,349,6.0,8.0,51,0.00,,SKC,0.00,VWS V14.01,2013-03-01 21:43:00,
2013-03-01 15:48:00,52.3,35.2,30.17,NW,304,0.0,8.0,52,0.00,,SKC,0.00,VWS V14.01,2013-03-01 21:48:00,
2013-03-01 15:53:00,52.8,35.7,30.17,NNW,340,0.0,8.0,52,0.00,,SKC,0.00,VWS V14.01,2013-03-01 21:53:00,
2013-03-01 15:58:00,53.1,35.0,30.17,NNW,340,2.0,8.0,50,0.00,,SKC,0.00,VWS V14.01,2013-03-01 21:58:00,
2013-03-01 16:00:00,50.3,33.4,30.18,NW,316,1.0,5.0,52,0.00,,SKC,0.00,VWS V14.01,2013-03-01 22:00:00,
2013-03-01 16:03:00,52.1,34.0,30.17,North,355,3.0,5.0,50,0.00,,SKC,0.00,VWS V14.01,2013-03-01 22:03:00,
2013-03-01 16:08:00,51.7,34.2,30.17,NNW,336,3.0,6.0,51,0.00,,SKC,0.00,VWS V14.01,2013-03-01 22:08:00,
2013-03-01 16:13:00,51.5,34.0,30.17,NNW,330,0.0,6.0,51,0.00,,SKC,0.00,VWS V14.01,2013-03-01 22:13:00,
2013-03-01 16:18:00,51.4,34.9,30.18,West,275,1.0,6.0,53,0.00,,SKC,0.00,VWS V14.01,2013-03-01 22:18:00,
2013-03-01 16:23:00,51.3,35.2,30.17,WNW,299,2.0,6.0,54,0.00,,SKC,0.00,VWS V14.01,2013-03-01 22:23:00,
2013-03-01 16:28:00,52.0,34.9,30.17,NNW,336,2.0,6.0,52,0.00,,SKC,0.00,VWS V14.01,2013-03-01 22:28:00,
2013-03-01 16:30:00,49.6,33.2,30.18,NNW,338,0.0,4.0,53,0.00,,SKC,0.00,VWS V14.01,2013-03-01 22:30:00,
2013-03-01 16:33:00,51.9,33.9,30.18,NW,306,0.0,4.0,50,0.00,,SKC,0.00,VWS V14.01,2013-03-01 22:33:00,
2013-03-01 16:38:00,51.7,34.2,30.18,NW,306,2.0,4.0,51,0.00,,SKC,0.00,VWS V14.01,2013-03-01 22:38:00,
2013-03-01 16:43:00,51.5,34.0,30.18,WNW,292,1.0,5.0,51,0.00,,SKC,0.00,VWS V14.01,2013-03-01 22:43:00,
2013-03-01 16:48:00,51.3,33.3,30.18,NNW,339,1.0,5.0,50,0.00,,SKC,0.00,VWS V14.01,2013-03-01 22:48:00,
2013-03-01 16:53:00,50.9,33.4,30.18,NNW,334,2.0,5.0,51,0.00,,SKC,0.00,VWS V14.01,2013-03-01 22:53:00,
2013-03-01 16:58:00,50.5,33.5,30.18,NNW,342,1.0,5.0,52,0.00,,SKC,0.00,VWS V14.01,2013-03-01 22:58:00,
2013-03-01 17:00:00,48.1,32.3,30.19,NNW,333,0.0,3.0,54,0.00,,SKC,0.00,VWS V14.01,2013-03-01 23:00:00,
2013-03-01 17:03:00,50.2,33.3,30.18,NW,319,2.0,3.0,52,0.00,,SKC,0.00,VWS V14.01,2013-03-01 23:03:00,
2013-03-01 17:08:00,50.0,34.0,30.18,NW,317,1.0,3.0,54,0.00,,SKC,0.00,VWS V14.01,2013-03-01 23:08:00,
2013-03-01 17:13:00,50.2,33.7,30.18,NW,324,2.0,4.0,53,0.00,,SKC,0.00,VWS V14.01,2013-03-01 23:13:00,
2013-03-01 17:18:00,50.2,33.7,30.18,NNW,336,1.0,4.0,53,0.00,,SKC,0.00,VWS V14.01,2013-03-01 23:18:00,
2013-03-01 17:23:00,50.2,33.7,30.18,WNW,290,1.0,4.0,53,0.00,,SKC,0.00,VWS V14.01,2013-03-01 23:23:00,
2013-03-01 17:28:00,49.9,33.5,30.19,WNW,296,1.0,4.0,53,0.00,,SKC,0.00,VWS V14.01,2013-03-01 23:28:00,
2013-03-01 17:30:00,46.3,32.3,30.19,NNW,331,0.0,2.0,58,0.00,,SKC,0.00,VWS V14.01,2013-03-01 23:30:00,
2013-03-01 17:33:00,49.6,33.2,30.18,NW,319,1.0,2.0,53,0.00,,SKC,0.00,VWS V14.01,2013-03-01 23:33:00,
2013-03-01 17:38:00,49.5,33.1,30.19,NNW,331,0.0,3.0,53,0.00,,SKC,0.00,VWS V14.01,2013-03-01 23:38:00,
2013-03-01 17:43:00,49.3,32.4,30.19,NNW,332,0.0,3.0,52,0.00,,SKC,0.00,VWS V14.01,2013-03-01 23:43:00,
2013-03-01 17:48:00,49.1,32.7,30.19,NNW,333,1.0,3.0,53,0.00,,SKC,0.00,VWS V14.01,2013-03-01 23:48:00,
2013-03-01 17:53:00,48.7,32.3,30.19,NNW,333,1.0,3.0,53,0.00,,SKC,0.00,VWS V14.01,2013-03-01 23:53:00,
2013-03-01 17:58:00,48.4,32.5,30.19,NNW,333,0.0,3.0,54,0.00,,SKC,0.00,VWS V14.01,2013-03-01 23:58:00,
2013-03-01 18:00:00,44.4,31.8,30.20,NNW,331,0.0,1.0,61,0.00,,SKC,0.00,VWS V14.01,2013-03-02 00:00:00,
2013-03-01 18:03:00,48.1,32.3,30.19,NNW,333,0.0,1.0,54,0.00,,SKC,0.00,VWS V14.01,2013-03-02 00:03:00,
2013-03-01 18:08:00,47.8,32.4,30.19,NNW,333,0.0,1.0,55,0.00,,SKC,0.00,VWS V14.01,2013-03-02 00:08:00,
2013-03-01 18:13:00,47.5,32.6,30.19,NNW,333,0.0,1.0,56,0.00,,SKC,0.00,VWS V14.01,2013-03-02 00:13:00,
2013-03-01 18:18:00,47.2,32.3,30.19,NNW,331,0.0,2.0,56,0.00,,SKC,0.00,VWS V14.01,2013-03-02 00:18:00,
2013-03-01 18:23:00,46.9,32.5,30.19,NNW,331,0.0,2.0,57,0.00,,SKC,0.00,VWS V14.01,2013-03-02 00:23:00,
2013-03-01 18:28:00,46.5,32.5,30.19,NNW,331,1.0,2.0,58,0.00,,SKC,0.00,VWS V14.01,2013-03-02 00:28:00,
2013-03-01 18:30:00,42.6,31.3,30.21,NNW,331,0.0,1.0,64,0.00,,SKC,0.00,VWS V14.01,2013-03-02 00:30:00,
2013-03-01 18:33:00,46.1,32.2,30.19,NNW,331,0.0,0.0,58,0.00,,SKC,0.00,VWS V14.01,2013-03-02 00:33:00,
2013-03-01 18:38:00,45.8,31.9,30.19,NNW,331,0.0,0.0,58,0.00,,SKC,0.00,VWS V14.01,2013-03-02 00:38:00,
2013-03-01 18:43:00,45.5,32.0,30.20,NNW,331,0.0,0.0,59,0.00,,SKC,0.00,VWS V14.01,2013-03-02 00:43:00,
2013-03-01 18:48:00,45.2,31.7,30.20,NNW,331,0.0,1.0,59,0.00,,SKC,0.00,VWS V14.01,2013-03-02 00:48:00,
2013-03-01 18:53:00,44.9,31.9,30.20,NNW,331,0.0,1.0,60,0.00,,SKC,0.00,VWS V14.01,2013-03-02 00:53:00,
2013-03-01 18:58:00,44.6,31.6,30.20,NNW,331,0.0,1.0,60,0.00,,SKC,0.00,VWS V14.01,2013-03-02 00:58:00,
2013-03-01 19:00:00,42.1,30.8,30.22,NNW,331,1.0,2.0,64,0.00,,SKC,0.00,VWS V14.01,2013-03-02 01:00:00,
2013-03-01 19:03:00,44.3,31.7,30.20,NNW,331,0.0,0.0,61,0.00,,SKC,0.00,VWS V14.01,2013-03-02 01:03:00,
2013-03-01 19:08:00,44.0,31.4,30.20,NNW,331,0.0,0.0,61,0.00,,SKC,0.00,VWS V14.01,2013-03-02 01:08:00,
2013-03-01 19:13:00,43.6,31.5,30.20,NNW,331,0.0,0.0,62,0.00,,SKC,0.00,VWS V14.01,2013-03-02 01:13:00,
2013-03-01 19:18:00,43.3,31.6,30.20,NNW,331,0.0,0.0,63,0.00,,SKC,0.00,VWS V14.01,2013-03-02 01:18:00,
2013-03-01 19:23:00,43.1,31.4,30.21,NNW,331,0.0,0.0,63,0.00,,SKC,0.00,VWS V14.01,2013-03-02 01:23:00,
2013-03-01 19:28:00,42.7,31.4,30.21,NNW,331,0.0,1.0,64,0.00,,SKC,0.00,VWS V14.01,2013-03-02 01:28:00,
2013-03-01 19:30:00,41.9,31.0,30.22,NNW,329,1.0,2.0,65,0.00,,SKC,0.00,VWS V14.01,2013-03-02 01:30:00,
2013-03-01 19:33:00,42.5,31.2,30.21,NNW,331,0.0,0.0,64,0.00,,SKC,0.00,VWS V14.01,2013-03-02 01:33:00,
2013-03-01 19:38:00,42.3,31.4,30.21,NNW,331,0.0,0.0,65,0.00,,SKC,0.00,VWS V14.01,2013-03-02 01:38:00,
2013-03-01 19:42:00,42.2,31.3,30.21,NNW,331,0.0,1.0,65,0.00,,SKC,0.00,VWS V14.01,2013-03-02 01:42:00,
2013-03-01 19:47:00,42.2,31.3,30.21,NNW,331,0.0,2.0,65,0.00,,SKC,0.00,VWS V14.01,2013-03-02 01:47:00,
2013-03-01 19:53:00,42.1,31.2,30.21,NNW,331,0.0,2.0,65,0.00,,SKC,0.00,VWS V14.01,2013-03-02 01:53:00,
2013-03-01 19:58:00,42.1,31.2,30.22,NNW,331,0.0,2.0,65,0.00,,SKC,0.00,VWS V14.01,2013-03-02 01:58:00,
2013-03-01 20:00:00,41.0,30.5,30.23,NNW,336,1.0,3.0,66,0.00,,SKC,0.00,VWS V14.01,2013-03-02 02:00:00,
2013-03-01 20:03:00,42.1,31.2,30.22,NNW,331,0.0,1.0,65,0.00,,SKC,0.00,VWS V14.01,2013-03-02 02:03:00,
2013-03-01 20:07:00,42.1,30.8,30.22,NNW,331,0.0,1.0,64,0.00,,SKC,0.00,VWS V14.01,2013-03-02 02:07:00,
2013-03-01 20:12:00,42.1,30.8,30.22,NNW,331,1.0,1.0,64,0.00,,SKC,0.00,VWS V14.01,2013-03-02 02:12:00,
2013-03-01 20:17:00,42.0,30.7,30.22,NNW,331,0.0,1.0,64,0.00,,SKC,0.00,VWS V14.01,2013-03-02 02:17:00,
2013-03-01 20:22:00,42.0,31.1,30.22,NNW,331,0.0,1.0,65,0.00,,SKC,0.00,VWS V14.01,2013-03-02 02:22:00,
2013-03-01 20:27:00,41.9,31.0,30.22,NNW,329,0.0,2.0,65,0.00,,SKC,0.00,VWS V14.01,2013-03-02 02:27:00,
2013-03-01 20:30:00,40.2,29.8,30.24,North,5,2.0,6.0,66,0.00,,SKC,0.00,VWS V14.01,2013-03-02 02:30:00,
2013-03-01 20:32:00,41.8,30.9,30.22,NNW,330,0.0,3.0,65,0.00,,SKC,0.00,VWS V14.01,2013-03-02 02:32:00,
2013-03-01 20:37:00,41.7,30.8,30.22,NNW,330,1.0,3.0,65,0.00,,SKC,0.00,VWS V14.01,2013-03-02 02:37:00,
2013-03-01 20:42:00,41.6,30.7,30.22,NNW,342,0.0,3.0,65,0.00,,SKC,0.00,VWS V14.01,2013-03-02 02:42:00,
2013-03-01 20:47:00,41.4,30.5,30.23,North,355,1.0,3.0,65,0.00,,SKC,0.00,VWS V14.01,2013-03-02 02:47:00,
2013-03-01 20:52:00,41.3,30.4,30.23,NNW,348,0.0,3.0,65,0.00,,SKC,0.00,VWS V14.01,2013-03-02 02:52:00,
2013-03-01 20:57:00,41.1,30.2,30.23,NNW,336,1.0,3.0,65,0.00,,SKC,0.00,VWS V14.01,2013-03-02 02:57:00,
2013-03-01 21:00:00,39.4,29.7,30.25,NNW,348,3.0,4.0,68,0.00,,SKC,0.00,VWS V14.01,2013-03-02 03:00:00,
2013-03-01 21:02:00,41.0,30.5,30.23,NNW,339,0.0,2.0,66,0.00,,SKC,0.00,VWS V14.01,2013-03-02 03:02:00,
2013-03-01 21:07:00,40.8,30.3,30.23,NNW,340,0.0,3.0,66,0.00,,SKC,0.00,VWS V14.01,2013-03-02 03:07:00,
2013-03-01 21:12:00,40.7,30.2,30.23,NNW,340,0.0,3.0,66,0.00,,SKC,0.00,VWS V14.01,2013-03-02 03:12:00,
2013-03-01 21:17:00,40.5,30.0,30.24,NNW,342,0.0,3.0,66,0.00,,SKC,0.00,VWS V14.01,2013-03-02 03:17:00,
2013-03-01 21:22:00,40.4,30.0,30.24,NNW,345,3.0,4.0,66,0.00,,SKC,0.00,VWS V14.01,2013-03-02 03:22:00,
2013-03-01 21:27:00,40.3,29.9,30.24,North,349,3.0,6.0,66,0.00,,SKC,0.00,VWS V14.01,2013-03-02 03:27:00,
2013-03-01 21:30:00,38.6,29.0,30.26,North,355,3.0,4.0,68,0.00,,SKC,0.00,VWS V14.01,2013-03-02 03:30:00,
2013-03-01 21:32:00,40.2,29.8,30.24,NNW,348,1.0,3.0,66,0.00,,SKC,0.00,VWS V14.01,2013-03-02 03:32:00,
2013-03-01 21:37:00,40.2,29.8,30.24,NNW,329,1.0,4.0,66,0.00,,SKC,0.00,VWS V14.01,2013-03-02 03:37:00,
2013-03-01 21:42:00,40.1,29.7,30.25,NNW,342,0.0,4.0,66,0.00,,SKC,0.00,VWS V14.01,2013-03-02 03:42:00,
2013-03-01 21:47:00,40.0,29.9,30.25,NNW,340,2.0,4.0,67,0.00,,SKC,0.00,VWS V14.01,2013-03-02 03:47:00,
2013-03-01 21:52:00,39.8,29.8,30.25,NNW,341,2.0,4.0,67,0.00,,SKC,0.00,VWS V14.01,2013-03-02 03:52:00,
2013-03-01 21:57:00,39.6,29.6,30.25,North,349,3.0,4.0,67,0.00,,SKC,0.00,VWS V14.01,2013-03-02 03:57:00,
2013-03-01 22:00:00,37.5,28.3,30.27,North,349,2.0,3.0,69,0.00,,SKC,0.00,VWS V14.01,2013-03-02 04:00:00,
2013-03-01 22:02:00,39.4,29.7,30.25,NNW,348,2.0,4.0,68,0.00,,SKC,0.00,VWS V14.01,2013-03-02 04:02:00,
2013-03-01 22:07:00,39.2,29.2,30.25,NNW,348,0.0,4.0,67,0.00,,SKC,0.00,VWS V14.01,2013-03-02 04:07:00,
2013-03-01 22:12:00,39.1,29.1,30.26,NNW,343,1.0,4.0,67,0.00,,SKC,0.00,VWS V14.01,2013-03-02 04:12:00,
2013-03-01 22:17:00,39.0,29.4,30.26,North,349,2.0,4.0,68,0.00,,SKC,0.00,VWS V14.01,2013-03-02 04:17:00,
2013-03-01 22:22:00,38.9,29.2,30.26,NNW,347,0.0,4.0,68,0.00,,SKC,0.00,VWS V14.01,2013-03-02 04:22:00,
2013-03-01 22:27:00,38.8,29.2,30.26,NNW,344,0.0,4.0,68,0.00,,SKC,0.00,VWS V14.01,2013-03-02 04:27:00,
2013-03-01 22:30:00,36.5,27.7,30.27,NNW,342,1.0,5.0,70,0.00,,SKC,0.00,VWS V14.01,2013-03-02 04:30:00,
2013-03-01 22:32:00,38.6,29.0,30.27,North,355,0.0,3.0,68,0.00,,SKC,0.00,VWS V14.01,2013-03-02 04:32:00,
2013-03-01 22:37:00,38.4,28.8,30.26,NNW,338,0.0,3.0,68,0.00,,SKC,0.00,VWS V14.01,2013-03-02 04:37:00,
2013-03-01 22:42:00,38.2,28.6,30.27,North,350,2.0,3.0,68,0.00,,SKC,0.00,VWS V14.01,2013-03-02 04:42:00,
2013-03-01 22:47:00,38.0,28.8,30.27,North,350,0.0,3.0,69,0.00,,SKC,0.00,VWS V14.01,2013-03-02 04:47:00,
2013-03-01 22:52:00,37.9,28.6,30.27,North,350,0.0,3.0,69,0.00,,SKC,0.00,VWS V14.01,2013-03-02 04:52:00,
2013-03-01 22:57:00,37.7,28.5,30.27,North,349,1.0,3.0,69,0.00,,SKC,0.00,VWS V14.01,2013-03-02 04:57:00,
2013-03-01 23:00:00,37.6,28.4,30.27,North,349,0.0,3.0,69,0.00,,SKC,0.00,VWS V14.01,2013-03-02 05:00:00,
2013-03-01 23:05:00,37.3,28.1,30.27,NNW,348,1.0,3.0,69,0.00,,SKC,0.00,VWS V14.01,2013-03-02 05:05:00,
2013-03-01 23:10:00,37.0,28.1,30.27,NNW,346,1.0,4.0,70,0.00,,SKC,0.00,VWS V14.01,2013-03-02 05:10:00,
2013-03-01 23:15:00,36.8,28.0,30.27,NNW,342,1.0,4.0,70,0.00,,SKC,0.00,VWS V14.01,2013-03-02 05:15:00,
2013-03-01 23:20:00,36.7,27.9,30.27,NNW,348,1.0,4.0,70,0.00,,SKC,0.00,VWS V14.01,2013-03-02 05:20:00,
2013-03-01 23:25:00,36.5,27.7,30.27,NNW,338,2.0,5.0,70,0.00,,SKC,0.00,VWS V14.01,2013-03-02 05:25:00,
2013-03-01 23:30:00,36.5,27.7,30.27,NNW,342,1.0,5.0,70,0.00,,SKC,0.00,VWS V14.01,2013-03-02 05:30:00,
2013-03-01 23:35:00,36.4,27.6,30.27,NNW,346,2.0,4.0,70,0.00,,SKC,0.00,VWS V14.01,2013-03-02 05:35:00,
2013-03-01 23:40:00,36.4,27.6,30.27,North,355,1.0,4.0,70,0.00,,SKC,0.00,VWS V14.01,2013-03-02 05:40:00,
2013-03-01 23:45:00,36.2,27.4,30.27,NNW,348,2.0,4.0,70,0.00,,SKC,0.00,VWS V14.01,2013-03-02 05:45:00,
2013-03-01 23:50:00,36.2,27.4,30.27,NNW,348,2.0,5.0,70,0.00,,SKC,0.00,VWS V14.01,2013-03-02 05:50:00,
2013-03-01 23:55:00,36.1,27.3,30.27,North,355,1.0,5.0,70,0.00,,SKC,0.00,VWS V14.01,2013-03-02 05:55:00,